COSMOS 980

导读

COSMOS 980是苏联(CIS)于1978年1月10日发射的“宇宙”系列卫星,是冷战时期苏联航天活动的组成部分。苏联对大部分军事卫星统一采用“COSMOS+序号”命名,目的是隐藏卫星真实用途,保障任务保密性。该系列卫星涵盖多种功能,是苏联航天体系的重要构成,COSMOS 980的发射也延续了这一系列发展脉络,服务当时太空探索与军事应用需求。

Basic Information
目录编号:
10587
目录名称:
COSMOS 980
国际标识:
1978-005E
轨道中心:
EARTH
卫星名称:
COSMOS 980
卫星全名:
--
卫星状态:
在轨 (已飞行17779 天)
发射日期:
1978-01-10 UTC
国别 :
俄罗斯(独联体) (CIS)
星等 :
--
This satellite is enrolled in the Space Conjunction Data Service (SCDS) and the current flight risk assessment level is: No High Risk
Orbit Information
数据来源 国际轨道数据 AOE轨道数据
星历时间 2026-09-13T19:24:21+0800
20小时前
查看轨道信息
2026-09-13T00:00:00+0800
1天前
查看轨道信息
半长轴 7847.027km 7847.025km
偏心率 0.0008798 0.0008707
轨道倾角 74.028° 74.027°
近地点辐角 271.516° 272.435°
升交点赤经 260.829° 261.902°
平近点角 256.251° 221.014°
近地点 1461.986km 1462.055km
远地点 1475.794km 1475.721km
周期 115.297分钟 115.297分钟
每日圈数 12.4895 12.489505
Detailed Information
使用方式:
暂无
2D Orbit Map
3D Orbit Map
Orbit Altitude Analysis Chart
Orbit Inclination Analysis Chart
Orbit Comprehensive Analysis Chart
View Comprehensive Chart
Miss Distance Evolution Trend with All Objects Subscribe to Flight Safety Assessment
Collision Probability Evolution Trend with All Objects Subscribe to Flight Safety Assessment